This is the latest recevied weather packets stored in our database for station/object S57PNX-8. If no packets are shown the sender has not sent any weather packets the latest 10 day(s).
| Time | Temp. | Humidity | Pressure | Rain* | Wind** | Luminosity | Snow |
|---|---|---|---|---|---|---|---|
| 1777636443 | 15° C | 36% | 1030 hPa | - | - | - | - |
| 1777635544 | 14.44° C | 36% | 1030.2 hPa | - | - | - | - |
| 1777634645 | 13.89° C | 35% | 1030.4 hPa | - | - | - | - |
| 1777633752 | 13.33° C | 36% | 1030.4 hPa | - | - | - | - |
| 1777632848 | 13.33° C | 34% | 1030.5 hPa | - | - | - | - |
| 1777631944 | 12.78° C | 35% | 1030.6 hPa | - | - | - | - |
| 1777631044 | 12.78° C | 36% | 1030.7 hPa | - | - | - | - |
| 1777630202 | 12.22° C | 37% | 1030.7 hPa | - | - | - | - |
| 1777630152 | 12.22° C | 37% | 1030.7 hPa | - | - | - | - |
| 1777629349 | 12.22° C | 38% | 1030.8 hPa | - | - | - | - |
| 1777629248 | 12.22° C | 38% | 1030.8 hPa | - | - | - | - |
| 1777628347 | 11.67° C | 35% | 1030.7 hPa | - | - | - | - |
| 1777627445 | 11.67° C | 37% | 1030.8 hPa | - | - | - | - |
| 1777626552 | 11.11° C | 39% | 1030.8 hPa | - | - | - | - |
| 1777625647 | 10° C | 40% | 1030.7 hPa | - | - | - | - |
| 1777624746 | 8.33° C | 40% | 1030.8 hPa | - | - | - | - |
| 1777623843 | 7.78° C | 42% | 1030.7 hPa | - | - | - | - |
| 1777622943 | 7.22° C | 43% | 1030.8 hPa | - | - | - | - |
| 1777622045 | 6.67° C | 44% | 1030.7 hPa | - | - | - | - |
| 1777621143 | 6.11° C | 47% | 1030.7 hPa | - | - | - | - |
| 1777620243 | 5.56° C | 45% | 1030.5 hPa | - | - | - | - |
| 1777619340 | 4.44° C | 47% | 1030.4 hPa | - | - | - | - |
| 1777618441 | 4.44° C | 48% | 1030.4 hPa | - | - | - | - |
| 1777617584 | 3.89° C | 48% | 1030.2 hPa | - | - | - | - |
| 1777617547 | 3.89° C | 48% | 1030.2 hPa | - | - | - | - |
* Rain since midnight (hover to see other rain measurements)
** Current wind speed in m/s (hover to see current wind gust speed)